This is the latest recevied weather packets stored in our database for station/object OK2JCZ-6. If no packets are shown the sender has not sent any weather packets the latest 10 day(s).
| Time | Temp. | Humidity | Pressure | Rain* | Wind** | Luminosity | Snow |
|---|---|---|---|---|---|---|---|
| 1788690505 | 21.11° C | 31% | 1026.7 hPa | 0 mm | - | - | - |
| 1788689905 | 21.11° C | 32% | 1026.9 hPa | 0 mm | - | - | - |
| 1788689305 | 19.44° C | 31% | 1026.8 hPa | 0 mm | - | - | - |
| 1788688405 | 20° C | 33% | 1026.8 hPa | 0 mm | - | - | - |
| 1788688106 | 20.56° C | 34% | 1026.8 hPa | 0 mm | - | - | - |
| 1788686905 | 20° C | 34% | 1026.9 hPa | 0 mm | - | - | - |
| 1788686605 | 20° C | 35% | 1026.9 hPa | 0 mm | - | - | - |
| 1788686305 | 18.89° C | 35% | 1026.8 hPa | 0 mm | - | - | - |
| 1788686005 | 18.89° C | 36% | 1026.8 hPa | 0 mm | - | - | - |
| 1788685705 | 18.33° C | 37% | 1026.8 hPa | 0 mm | - | - | - |
| 1788685405 | 18.33° C | 38% | 1026.8 hPa | 0 mm | - | - | - |
| 1788684505 | 18.89° C | 39% | 1026.7 hPa | 0 mm | - | - | - |
| 1788684205 | 18.89° C | 38% | 1026.7 hPa | 0 mm | - | - | - |
| 1788683605 | 19.44° C | 37% | 1026.6 hPa | 0 mm | - | - | - |
| 1788683305 | 17.78° C | 38% | 1026.6 hPa | 0 mm | - | - | - |
| 1788683005 | 17.78° C | 39% | 1026.6 hPa | 0 mm | - | - | - |
| 1788682706 | 18.33° C | 40% | 1026.6 hPa | 0 mm | - | - | - |
| 1788682105 | 18.89° C | 39% | 1026.5 hPa | 0 mm | - | - | - |
| 1788681805 | 18.89° C | 39% | 1026.4 hPa | 0 mm | - | - | - |
| 1788681504 | 18.89° C | 39% | 1026.4 hPa | 0 mm | - | - | - |
| 1788680605 | 18.89° C | 40% | 1026.3 hPa | 0 mm | - | - | - |
| 1788680305 | 18.33° C | 41% | 1026.3 hPa | 0 mm | - | - | - |
| 1788680005 | 18.33° C | 42% | 1026.3 hPa | 0 mm | - | - | - |
| 1788679406 | 17.78° C | 42% | 1026 hPa | 0 mm | - | - | - |
| 1788679105 | 17.78° C | 42% | 1026 hPa | 0 mm | - | - | - |
* Rain latest hour (hover to see other rain measurements)
** Current wind speed in m/s (hover to see current wind gust speed)